Skip Page Navigation
NASA JPL Caltech
NASA Logo - Jet Propulsion Laboratory + View the NASA Portal
+ Center for Near-Earth Object Studies
JPL Home Earth Solar System Stars & Galaxies Technology
JPL Solar System Dynamics
BODIES ORBITS EPHEMERIDES TOOLS PHYSICAL DATA DISCOVERY FAQ SITE MAP
IMPORTANT: The SSD Announcement email list is now available. Major changes are coming in the near future, including possible hostname and/or URL changes. To be notified of such changes, subscribe to this email list.

Please visit this page for more details.


JPL Small-Body Database Browser
Search: [ help ]  
410257 (2007 TY115)
Classification: Main-belt Asteroid          SPK-ID: 2410257
Ephemeris | Orbit Diagram | Orbital Elements | Mission Design | Physical Parameters | Discovery Circumstances ]

[ show orbit diagram ]
Orbital Elements at Epoch 2458600.5 (2019-Apr-27.0) TDB
Reference: JPL 16 (heliocentric ecliptic J2000)
 Element Value Uncertainty (1-sigma)   Units 
e .2395311778760075 6.5784e-08  
a 2.362894922144889 2.2331e-08 au
q 1.796907918246287 1.569e-07 au
i 2.101203758799768 6.3806e-06 deg
node 120.5304533763195 0.00030995 deg
peri 185.6015950563085 0.00031111 deg
M 131.1573440795625 3.1378e-05 deg
tp 2458117.157311665196
(2017-Dec-29.65731167)
0.00011269 TDB
period 1326.676512258252
3.63
1.8807e-05
5.149e-08
d
yr
n .271354770114391 3.8467e-09 deg/d
Q 2.928881926043492 2.768e-08 au
  Orbit Determination Parameters
   # obs. used (total)      98  
   data-arc span      7118 days (19.49 yr)  
   first obs. used      1999-06-18  
   last obs. used      2018-12-13  
   planetary ephem.      DE431  
   SB-pert. ephem.      SB431-N16  
   condition code      0  
   norm. resid. RMS      .57337  
   source      ORB  
   producer      Otto Matic  
   solution date      2019-Jul-14 13:36:01  

Additional Information
 Earth MOID = .781147 au 
 Jupiter MOID = 2.3285 au 
 T_jup = 3.510 
[ show covariance matrix ]

Ephemeris | Orbit Diagram | Orbital Elements | Mission Design | Physical Parameters | Discovery Circumstances ]

Physical Parameter Table
Parameter Symbol Value Units Sigma Reference Notes
absolute magnitude H 18.0   n/a MPO472142  

410257 (2007 TY115)          Discovered 2007-Oct-08 by Mt. Lemmon Survey at Mount Lemmon
Reference: Last Updated: 2014-10-09

Alternate Designations
 2007 TY115 = 2003 RN3 
Ephemeris | Orbit Diagram | Orbital Elements | Mission Design | Physical Parameters | Discovery Circumstances ]
ABOUT SSD CREDITS/AWARDS PRIVACY/COPYRIGHT GLOSSARY LINKS
FirstGov 2020-Jan-26 18:42 UT
(server date/time)  
NASA Home Page
Site Manager:   Ryan S. Park
Webmaster  Alan B. Chamberlin